DW2762 Weather Reports


Display with metric or nautical units.
time (UTC)temp
F
wind
direction
speed
MPH
gust
MPH
rain 1hr
in
rain 24hr
in
rain mn
in
humidity
%
barometer
mb
20260510000109 44 342 4.0 8.0 0.00 0.00 0.00 83 1019.1
20260509234609 45 351 4.0 6.0 0.00 0.00 0.00 82 1019.2
20260509233109 45 348 4.0 5.0 0.00 0.00 0.00 82 1019.3
20260509231609 45 330 3.0 5.0 0.00 0.00 0.00 81 1019.5
20260509230109 45 340 4.0 6.0 0.00 0.00 0.00 81 1019.7
20260509224609 45 348 3.0 5.0 0.00 0.00 0.00 81 1019.7
20260509223109 46 340 3.0 5.0 0.00 0.00 0.00 81 1019.9
20260509221609 46 324 3.0 4.0 0.00 0.00 0.00 81 1019.9
20260509220109 45 336 2.0 4.0 0.00 0.00 0.00 81 1020.0
20260509211608 47 5 0.0 3.0 0.00 0.00 0.00 78 1020.0
20260509204608 48 19 1.0 2.0 0.00 0.00 0.00 76 1020.2
20260509203109 49 22 2.0 3.0 0.00 0.00 0.00 75 1020.2
20260509201608 49 24 3.0 4.0 0.00 0.00 0.00 75 1020.1
20260509193108 52 9 1.0 3.0 0.00 0.00 0.00 70 1019.9
20260509191608 50 329 4.0 8.0 0.00 0.00 0.00 83 1020.2
20260509190108 54 71 5.0 9.0 0.00 0.00 0.00 68 1019.6
20260509184608 55 57 4.0 6.0 0.00 0.00 0.00 67 1019.5
20260509183113 56 59 5.0 8.0 0.00 0.00 0.00 65 1019.3
20260509181612 57 5 4.0 9.0 0.00 0.00 0.00 63 1019.2
20260509174613 59 27 7.0 10.0 0.00 0.00 0.00 59 1019.2
20260509173112 59 360 6.0 10.0 0.00 0.00 0.00 59 1019.1
20260509171613 60 340 7.0 12.0 0.00 0.00 0.00 58 1018.9
20260509170112 60 54 4.0 11.0 0.00 0.00 0.00 58 1018.9
20260509164612 60 47 6.0 10.0 0.00 0.00 0.00 58 1018.9
20260509161613 61 337 7.0 13.0 0.00 0.00 0.00 56 1018.9
20260509160111 63 5 8.0 14.0 0.00 0.00 0.00 53 1019.1
20260509154611 63 19 7.0 12.0 0.00 0.00 0.00 55 1019.1
20260509153112 63 360 8.0 12.0 0.00 0.00 0.00 54 1019.2
20260509151611 63 48 10.0 14.0 0.00 0.00 0.00 55 1019.1
20260509150111 63 328 7.0 13.0 0.00 0.00 0.00 55 1019.2
20260509144611 64 19 6.0 10.0 0.00 0.00 0.00 56 1019.3
20260509143110 64 88 11.0 15.0 0.00 0.00 0.00 54 1019.2
20260509141610 64 24 8.0 16.0 0.00 0.00 0.00 54 1019.0
20260509140110 64 15 6.0 11.0 0.00 0.00 0.00 54 1018.9
20260509134610 65 52 6.0 13.0 0.00 0.00 0.00 53 1019.1
20260509133111 65 348 10.0 14.0 0.00 0.00 0.00 49 1019.1
20260509131610 64 20 6.0 9.0 0.00 0.00 0.00 53 1019.2
20260509130110 66 46 2.0 10.0 0.00 0.00 0.00 50 1019.3
20260509124609 64 22 4.0 8.0 0.00 0.00 0.00 52 1019.5
20260509123109 65 342 5.0 9.0 0.00 0.00 0.00 52 1019.5
20260509121609 64 59 7.0 12.0 0.00 0.00 0.00 53 1019.5
20260509120111 63 290 4.0 9.0 0.00 0.00 0.00 54 1019.6
20260509114609 62 329 7.0 11.0 0.00 0.00 0.00 55 1019.8
20260509113109 63 320 4.0 6.0 0.00 0.00 0.00 56 1019.8
20260509111609 63 323 8.0 11.0 0.00 0.00 0.00 56 1019.7
20260509104609 63 11 6.0 11.0 0.00 0.00 0.00 56 1019.9
20260509101609 63 11 3.0 9.0 0.00 0.00 0.00 55 1019.8
20260509100108 61 54 4.0 13.0 0.00 0.00 0.00 59 1020.0
20260509094608 60 5 6.0 11.0 0.00 0.00 0.00 60 1020.2
20260509093108 61 52 7.0 11.0 0.00 0.00 0.00 60 1020.2
20260509091608 62 48 8.0 12.0 0.00 0.00 0.00 59 1020.4
20260509090108 60 42 2.0 5.0 0.00 0.00 0.00 62 1020.1
20260509084608 60 55 4.0 14.0 0.00 0.00 0.00 62 1020.4
20260509083113 58 57 5.0 12.0 0.00 0.00 0.00 63 1020.5
20260509081613 58 55 8.0 10.0 0.00 0.00 0.00 65 1020.4
20260509080113 57 61 4.0 11.0 0.00 0.00 0.00 64 1020.5
20260509073113 57 342 3.0 6.0 0.00 0.00 0.00 69 1020.8
20260509071613 55 342 3.0 5.0 0.00 0.00 0.00 71 1020.8
20260509063112 54 11 3.0 8.0 0.00 0.00 0.00 76 1020.6
20260509061612 53 32 3.0 8.0 0.00 0.00 0.00 77 1020.6
20260509060112 53 18 4.0 9.0 0.00 0.00 0.00 78 1020.5
20260509054612 51 355 5.0 9.0 0.00 0.00 0.00 80 1020.4
20260509053111 51 26 4.0 8.0 0.00 0.00 0.00 81 1020.3
20260509051611 50 329 4.0 8.0 0.00 0.00 0.00 83 1020.2
20260509050112 49 351 7.0 9.0 0.00 0.00 0.00 85 1020.1
20260509044611 48 34 6.0 10.0 0.00 0.00 0.00 86 1020.0
20260509043111 47 5 7.0 9.0 0.00 0.00 0.00 88 1020.0
20260509041611 47 355 6.0 9.0 0.00 0.00 0.00 88 1019.9
20260509040111 47 5 5.0 11.0 0.00 0.00 0.00 88 1019.7
20260509034611 47 342 6.0 11.0 0.00 0.00 0.00 89 1019.9
20260509033110 47 17 6.0 9.0 0.00 0.00 0.00 89 1019.6
20260509031610 47 5 5.0 10.0 0.00 0.00 0.00 89 1019.6
20260509030110 46 355 8.0 11.0 0.00 0.00 0.00 89 1019.6
20260509024610 47 346 6.0 11.0 0.00 0.00 0.00 89 1019.6
20260509023110 47 11 5.0 9.0 0.00 0.00 0.00 89 1019.7
20260509021610 47 17 4.0 8.0 0.00 0.00 0.00 89 1019.6
20260509020110 46 33 2.0 6.0 0.00 0.00 0.00 89 1019.8
20260509014610 46 9 4.0 7.0 0.00 0.00 0.00 89 1019.8
20260509013109 47 16 4.0 7.0 0.00 0.00 0.00 88 1019.8
20260509011609 47 26 4.0 7.0 0.00 0.00 0.00 87 1019.9
20260509010110 47 355 5.0 8.0 0.00 0.00 0.00 87 1019.7
20260509004611 48 24 4.0 8.0 0.00 0.00 0.00 87 1019.9
20260509003109 48 5 4.0 8.0 0.00 0.00 0.00 87 1019.9
20260509001609 49 21 5.0 8.0 0.00 0.00 0.00 86 1019.9